This demonstration page uses our WeatherBlox Daily Observations layout. Learn more.

Left ArrowRight Arrow

Hourly Observations for February 1, 2017

Temp ( °F °C ) Dew Point ( °F °C ) Humidity (%) Winds ( mph kmh ) Pressure ( in mb ) Visibility ( mi km ) Precip ( " mm )
12:16 am 00:16 Cloudy 36 2 32 undefined 87 87 W 10 17 30.06 1018 10 16 N/A
12:36 am 00:36 Cloudy 36 2 32 undefined 87 87 W 9 15 30.06 1018 10 16 N/A
12:56 am 00:56 Cloudy 36 2 32 undefined 87 87 W 9 15 30.06 1018 10 16 N/A
1:15 am 01:15 Cloudy 36 2 32 undefined 87 87 W 7 11 30.06 1018 10 16 N/A
1:36 am 01:36 Cloudy 36 2 30 -1 81 81 W 6 9 30.06 1018 10 16 N/A
1:56 am 01:56 Cloudy 36 2 30 -1 81 81 W 7 11 30.06 1018 10 16 N/A
2:15 am 02:15 Cloudy 36 2 30 -1 81 81 W 6 9 30.03 1017 10 16 N/A
2:36 am 02:36 Cloudy 36 2 30 -1 81 81 W 6 9 30.03 1017 10 16 N/A
2:56 am 02:56 Cloudy 36 2 30 -1 81 81 W 7 11 30.06 1018 10 16 N/A
3:16 am 03:16 Cloudy 36 2 30 -1 81 81 W 8 13 30.06 1018 10 16 N/A
3:36 am 03:36 Cloudy 36 2 30 -1 81 81 W 8 13 30.06 1018 10 16 N/A
3:56 am 03:56 Cloudy 37 3 30 -1 75 75 WNW 8 13 30.00 1016 10 16 N/A
4:16 am 04:16 Cloudy 37 3 28 -2 70 70 W 9 15 30.03 1017 10 16 N/A
4:36 am 04:36 Cloudy 37 3 30 -1 75 75 WNW 10 17 30.03 1017 10 16 N/A
4:55 am 04:55 Cloudy 37 3 30 -1 75 75 WNW 8 13 30.03 1017 10 16 N/A
5:16 am 05:16 Cloudy 37 3 30 -1 75 75 NW 8 13 30.03 1017 10 16 N/A
5:36 am 05:36 Cloudy 37 3 30 -1 75 75 NW 10 17 30.03 1017 10 16 N/A
5:55 am 05:55 Cloudy 37 3 30 -1 75 75 NW 9 15 30.03 1017 10 16 N/A
6:16 am 06:16 Cloudy 36 2 30 -1 81 81 WNW 8 13 30.06 1018 10 16 N/A
6:36 am 06:36 Cloudy 36 2 30 -1 81 81 W 7 11 30.09 1019 10 16 N/A
6:55 am 06:55 Cloudy 36 2 28 -2 75 75 W 6 9 30.09 1019 10 16 N/A
7:16 am 07:16 Cloudy 36 2 30 -1 81 81 W 6 9 30.09 1019 10 16 N/A
7:36 am 07:36 Cloudy 36 2 30 -1 81 81 WNW 7 11 30.09 1019 10 16 N/A
7:55 am 07:55 Cloudy 36 2 28 -2 75 75 W 7 11 30.09 1019 10 16 N/A
8:16 am 08:16 Cloudy 36 2 28 -2 75 75 WSW 7 11 30.12 1020 10 16 N/A
8:36 am 08:36 Cloudy 36 2 30 -1 81 81 WSW 6 9 30.12 1020 10 16 N/A
8:56 am 08:56 Cloudy 36 2 30 -1 81 81 SW 7 11 30.12 1020 10 16 N/A
9:16 am 09:16 Cloudy 36 2 32 undefined 87 87 SW 7 11 30.12 1020 10 16 N/A
9:35 am 09:35 Cloudy 37 3 32 undefined 81 81 SW 9 15 30.12 1020 10 16 N/A
9:56 am 09:56 Cloudy 37 3 32 undefined 81 81 SW 7 11 30.12 1020 10 16 N/A
10:15 am 10:15 Cloudy 37 3 32 undefined 81 81 WSW 7 11 30.12 1020 10 16 N/A
10:36 am 10:36 Cloudy 37 3 28 -2 70 70 W 9 15 30.12 1020 10 16 N/A
10:56 am 10:56 Partly Cloudy 39 4 28 -2 65 65 W 9 15 30.09 1019 10 16 N/A
11:15 am 11:15 Sunny 39 4 28 -2 65 65 W 9 15 30.09 1019 10 16 N/A
11:36 am 11:36 Partly Cloudy 39 4 28 -2 65 65 W 10 17 30.09 1019 10 16 N/A
11:56 am 11:56 Sunny 39 4 28 -2 65 65 W 8 13 30.09 1019 10 16 N/A
12:15 pm 12:15 Partly Cloudy 41 5 27 -3 57 57 WNW 9 15 30.09 1019 10 16 N/A
12:36 pm 12:36 Sunny 41 5 27 -3 57 57 W 7 11 30.09 1019 10 16 N/A
12:56 pm 12:56 Sunny 41 5 27 -3 57 57 WNW 7 11 30.09 1019 10 16 N/A
1:15 pm 13:15 Sunny 41 5 27 -3 57 57 WNW 9 15 30.09 1019 10 16 N/A
1:36 pm 13:36 Partly Cloudy 39 4 27 -3 61 61 W 10 17 30.09 1019 10 16 N/A
1:56 pm 13:56 Mostly Cloudy 39 4 27 -3 61 61 WNW 9 15 30.09 1019 10 16 N/A
2:16 pm 14:16 Cloudy 41 5 27 -3 57 57 W 13 20 30.09 1019 10 16 N/A
2:36 pm 14:36 Cloudy 41 5 25 -4 53 53 WNW 9 15 30.09 1019 10 16 N/A
2:56 pm 14:56 Cloudy 39 4 27 -3 61 61 W 12 19 30.09 1019 10 16 N/A
3:16 pm 15:16 Cloudy 39 4 25 -4 56 56 WNW 12 19 30.12 1020 10 16 N/A
3:36 pm 15:36 Mostly Cloudy 39 4 25 -4 56 56 WNW 16 26 30.12 1020 10 16 N/A
3:56 pm 15:56 Cloudy 39 4 25 -4 56 56 WNW 13 20 30.12 1020 10 16 N/A
4:16 pm 16:16 Cloudy 39 4 25 -4 56 56 W 10 17 30.12 1020 10 16 N/A
4:36 pm 16:36 Partly Cloudy 39 4 27 -3 61 61 WNW 12 19 30.15 1021 10 16 N/A
4:55 pm 16:55 Partly Cloudy 39 4 27 -3 61 61 W 13 20 30.15 1021 10 16 N/A
5:16 pm 17:16 Partly Cloudy 37 3 27 -3 65 65 WNW 12 19 30.18 1022 10 16 N/A
5:35 pm 17:35 Mostly Cloudy 37 3 25 -4 60 60 WNW 9 15 30.18 1022 10 16 N/A
5:56 pm 17:56 Partly Cloudy 34 1 25 -4 70 70 W 9 15 30.18 1022 10 16 N/A
6:16 pm 18:16 Clear 36 2 25 -4 65 65 WNW 9 15 30.18 1022 10 16 N/A
6:36 pm 18:36 Clear 34 1 23 -5 65 65 WNW 8 13 30.21 1023 10 16 N/A
6:56 pm 18:56 Clear 34 1 25 -4 70 70 WNW 7 11 30.21 1023 10 16 N/A
7:16 pm 19:16 Partly Cloudy 34 1 25 -4 70 70 WNW 8 13 30.21 1023 10 16 N/A
7:36 pm 19:36 Cloudy 36 2 25 -4 65 65 WNW 10 17 30.21 1023 10 16 N/A
7:56 pm 19:56 Mostly Cloudy 34 1 25 -4 70 70 NW 8 13 30.21 1023 10 16 N/A
8:16 pm 20:16 Mostly Cloudy 34 1 25 -4 70 70 WNW 9 15 30.24 1024 10 16 N/A
8:36 pm 20:36 Mostly Cloudy 34 1 25 -4 70 70 WNW 9 15 30.24 1024 10 16 N/A
8:56 pm 20:56 Partly Cloudy 32 undefined 23 -5 69 69 WNW 10 17 30.24 1024 10 16 N/A
9:16 pm 21:16 Clear 32 undefined 23 -5 69 69 WNW 8 13 30.24 1024 10 16 N/A
9:36 pm 21:36 Clear 30 -1 23 -5 75 75 WNW 8 13 30.24 1024 10 16 N/A
9:56 pm 21:56 Clear 30 -1 23 -5 75 75 WNW 6 9 30.24 1024 10 16 N/A
10:15 pm 22:15 Partly Cloudy 30 -1 23 -5 75 75 W 6 9 30.24 1024 10 16 N/A
10:36 pm 22:36 Cloudy 30 -1 25 -4 80 80 W 5 7 30.24 1024 10 16 N/A
10:56 pm 22:56 Cloudy 32 undefined 25 -4 75 75 W 7 11 30.24 1024 10 16 N/A
11:16 pm 23:16 Cloudy 32 undefined 25 -4 75 75 W 8 13 30.24 1024 10 16 N/A
11:36 pm 23:36 Cloudy 32 undefined 23 -5 69 69 WNW 13 20 30.24 1024 10 16 N/A
11:55 pm 23:55 Cloudy 32 undefined 23 -5 69 69 WNW 13 20 30.24 1024 10 16 N/A

Powered by AerisWeather